When you browse on this site, cookies collect data to enhance your experience and personalize the content and advertising you see.
Visit our Privacy Policy to learn more. By continuing to use the site, you agree to this use of cookies and data.
  • în România
  • Lista ţărilor
  • Pe 7 zile
  • Temperatura apei
  • Meteo pe hartă
  • Widget-uri
  • user-avatar
    Intrare

    Meteo pe oră la Reading

    Astăzi, 12 Decembrie, Joi

    Timp Temperatura Precipitaţii Vânt Presiune Umiditate
    00:00 +1°C° 0 mm 3 m/s 749 mmHg 90%
    01:00 +1°C° 0 mm 3 m/s 748 mmHg 90%
    02:00 +1°C° 0 mm 3 m/s 747 mmHg 90%
    03:00 +1°C° 0 mm 3 m/s 747 mmHg 90%
    04:00 +1°C° 0 mm 3 m/s 746 mmHg 89%
    05:00 +2°C° 0 mm 3 m/s 745 mmHg 87%
    06:00 +2°C° 0 mm 3 m/s 744 mmHg 85%
    07:00 +2°C° 0.6 mm 5 m/s 743 mmHg 88%
    08:00 +3°C° 0.6 mm 6 m/s 741 mmHg 91%
    09:00 +4°C° 0.6 mm 7 m/s 740 mmHg 94%
    10:00 +5°C° 1.8 mm 7 m/s 739 mmHg 94%
    11:00 +6°C° 1.8 mm 7 m/s 737 mmHg 94%
    12:00 +7°C° 1.8 mm 6 m/s 736 mmHg 95%
    13:00 +8°C° 1.3 mm 7 m/s 734 mmHg 94%
    14:00 +8°C° 1.3 mm 7 m/s 733 mmHg 94%
    15:00 +7°C° 1.3 mm 8 m/s 731 mmHg 93%
    16:00 +6°C° 1.6 mm 7 m/s 731 mmHg 92%
    17:00 +7°C° 1.6 mm 6 m/s 730 mmHg 91%
    18:00 +7°C° 1.6 mm 6 m/s 730 mmHg 90%
    19:00 +6°C° 0 mm 5 m/s 729 mmHg 91%
    20:00 +6°C° 0 mm 5 m/s 728 mmHg 93%
    21:00 +5°C° 0 mm 4 m/s 728 mmHg 94%
    22:00 +5°C° 0.7 mm 5 m/s 727 mmHg 91%
    23:00 +5°C° 0.7 mm 6 m/s 727 mmHg 88%

    Mâine, 13 Decembrie, Vineri

    Timp Temperatura Precipitaţii Vânt Presiune Umiditate
    00:00 +5°C° 0.7 mm 7 m/s 726 mmHg 85%
    01:00 +4°C° 0.6 mm 8 m/s 726 mmHg 86%
    02:00 +3°C° 0.6 mm 10 m/s 726 mmHg 88%
    03:00 +2°C° 0.6 mm 11 m/s 726 mmHg 89%
    04:00 +2°C° 0.2 mm 10 m/s 727 mmHg 86%
    05:00 +2°C° 0.2 mm 10 m/s 727 mmHg 83%
    06:00 +2°C° 0.2 mm 9 m/s 728 mmHg 81%
    07:00 +2°C° 0 mm 9 m/s 729 mmHg 80%
    08:00 +2°C° 0 mm 9 m/s 730 mmHg 79%
    09:00 +1°C° 0 mm 9 m/s 731 mmHg 78%
    10:00 +2°C° 0 mm 9 m/s 732 mmHg 77%
    11:00 +3°C° 0 mm 9 m/s 732 mmHg 77%
    12:00 +3°C° 0 mm 9 m/s 733 mmHg 76%
    13:00 +3°C° 0 mm 9 m/s 733 mmHg 78%
    14:00 +3°C° 0 mm 9 m/s 734 mmHg 79%
    15:00 +3°C° 0 mm 9 m/s 735 mmHg 81%
    16:00 +3°C° 0 mm 9 m/s 735 mmHg 80%
    17:00 +3°C° 0 mm 9 m/s 736 mmHg 79%
    18:00 +4°C° 0 mm 8 m/s 736 mmHg 78%
    19:00 +3°C° 0 mm 7 m/s 736 mmHg 80%
    20:00 +2°C° 0 mm 6 m/s 736 mmHg 81%
    21:00 +2°C° 0 mm 5 m/s 736 mmHg 83%
    22:00 +2°C° 0.2 mm 5 m/s 735 mmHg 87%
    23:00 +4°C° 0.2 mm 4 m/s 734 mmHg 91%

    Poimâine, 14 Decembrie, Sâmbătă

    Timp Temperatura Precipitaţii Vânt Presiune Umiditate
    00:00 +5°C° 0.2 mm 4 m/s 733 mmHg 95%
    01:00 +4°C° 0.1 mm 7 m/s 734 mmHg 89%
    02:00 +5°C° 0.1 mm 9 m/s 734 mmHg 84%
    03:00 +4°C° 0.1 mm 12 m/s 734 mmHg 79%
    04:00 +3°C° 0 mm 11 m/s 736 mmHg 78%
    05:00 +2°C° 0 mm 10 m/s 737 mmHg 78%
    06:00 +1°C° 0 mm 8 m/s 738 mmHg 77%
    07:00 +2°C° 0 mm 7 m/s 739 mmHg 78%
    08:00 +2°C° 0 mm 6 m/s 739 mmHg 78%
    09:00 +2°C° 0 mm 6 m/s 740 mmHg 79%
    10:00 +2°C° 0.2 mm 6 m/s 741 mmHg 81%
    11:00 +3°C° 0.2 mm 7 m/s 741 mmHg 84%
    12:00 +3°C° 0.2 mm 7 m/s 741 mmHg 86%
    13:00 +3°C° 0.1 mm 6 m/s 742 mmHg 82%
    14:00 +3°C° 0.1 mm 5 m/s 742 mmHg 79%
    15:00 +4°C° 0.1 mm 4 m/s 742 mmHg 76%
    16:00 +3°C° 0 mm 4 m/s 742 mmHg 78%
    17:00 +3°C° 0 mm 4 m/s 742 mmHg 81%
    18:00 +1°C° 0 mm 4 m/s 741 mmHg 83%
    19:00 +2°C° 0.4 mm 5 m/s 741 mmHg 85%
    20:00 +3°C° 0.4 mm 7 m/s 740 mmHg 88%
    21:00 +4°C° 0.4 mm 8 m/s 739 mmHg 90%
    22:00 +4°C° 0.4 mm 8 m/s 738 mmHg 86%
    23:00 +3°C° 0.4 mm 7 m/s 738 mmHg 82%

    15 Decembrie, Duminică

    Timp Temperatura Precipitaţii Vânt Presiune Umiditate
    00:00 +3°C° 0.4 mm 7 m/s 737 mmHg 78%
    01:00 +2°C° 0 mm 8 m/s 738 mmHg 74%
    02:00 +1°C° 0 mm 10 m/s 739 mmHg 71%
    03:00 +1°C° 0 mm 11 m/s 739 mmHg 67%
    04:00 0°C° 0 mm 9 m/s 741 mmHg 69%
    05:00 0°C° 0 mm 7 m/s 742 mmHg 71%
    06:00 -1°C° 0 mm 6 m/s 743 mmHg 73%
    07:00 0°C° 0 mm 5 m/s 743 mmHg 76%
    08:00 0°C° 0 mm 4 m/s 744 mmHg 78%
    09:00 0°C° 0 mm 4 m/s 745 mmHg 81%
    10:00 +2°C° 0.1 mm 5 m/s 744 mmHg 79%
    11:00 +3°C° 0.1 mm 6 m/s 744 mmHg 76%
    12:00 +5°C° 0.1 mm 7 m/s 744 mmHg 74%
    13:00 +4°C° 0.8 mm 7 m/s 744 mmHg 76%
    14:00 +4°C° 0.8 mm 6 m/s 743 mmHg 78%
    15:00 +4°C° 0.8 mm 6 m/s 743 mmHg 81%
    16:00 +3°C° 0.1 mm 6 m/s 743 mmHg 81%
    17:00 +3°C° 0.1 mm 5 m/s 743 mmHg 81%
    18:00 +2°C° 0.1 mm 5 m/s 744 mmHg 81%
    19:00 +2°C° 0 mm 5 m/s 744 mmHg 81%
    20:00 +2°C° 0 mm 5 m/s 744 mmHg 82%
    21:00 +3°C° 0 mm 5 m/s 744 mmHg 82%
    22:00 +3°C° 0.1 mm 5 m/s 744 mmHg 83%
    23:00 +3°C° 0.1 mm 5 m/s 745 mmHg 83%

    16 Decembrie, Luni

    Timp Temperatura Precipitaţii Vânt Presiune Umiditate
    00:00 +3°C° 0.1 mm 5 m/s 745 mmHg 84%
    01:00 +3°C° 0 mm 5 m/s 745 mmHg 83%
    02:00 +3°C° 0 mm 5 m/s 745 mmHg 82%
    03:00 +4°C° 0 mm 4 m/s 745 mmHg 82%
    04:00 +4°C° 0 mm 4 m/s 745 mmHg 82%
    05:00 +4°C° 0 mm 4 m/s 745 mmHg 83%
    06:00 +4°C° 0 mm 4 m/s 745 mmHg 83%
    07:00 +4°C° 0 mm 4 m/s 745 mmHg 84%
    08:00 +4°C° 0 mm 4 m/s 745 mmHg 84%
    09:00 +4°C° 0 mm 4 m/s 746 mmHg 84%
    10:00 +5°C° 0 mm 4 m/s 745 mmHg 81%
    11:00 +6°C° 0 mm 4 m/s 745 mmHg 79%
    12:00 +7°C° 0 mm 5 m/s 745 mmHg 76%
    13:00 +6°C° 0 mm 5 m/s 745 mmHg 77%
    14:00 +6°C° 0 mm 5 m/s 745 mmHg 78%
    15:00 +6°C° 0 mm 5 m/s 745 mmHg 78%
    16:00 +6°C° 0 mm 4 m/s 745 mmHg 80%
    17:00 +5°C° 0 mm 4 m/s 745 mmHg 82%
    18:00 +5°C° 0 mm 4 m/s 746 mmHg 84%
    19:00 +4°C° 0 mm 4 m/s 746 mmHg 84%
    20:00 +4°C° 0 mm 4 m/s 747 mmHg 85%
    21:00 +3°C° 0 mm 4 m/s 747 mmHg 85%
    22:00 +3°C° 0 mm 3 m/s 747 mmHg 87%
    23:00 +2°C° 0 mm 3 m/s 748 mmHg 89%

    17 Decembrie, Marţi

    Timp Temperatura Precipitaţii Vânt Presiune Umiditate
    00:00 +2°C° 0 mm 3 m/s 748 mmHg 91%
    01:00 +2°C° 0 mm 3 m/s 749 mmHg 92%
    02:00 +1°C° 0 mm 3 m/s 749 mmHg 92%
    03:00 +2°C° 0 mm 2 m/s 749 mmHg 92%
    04:00 +2°C° 0 mm 2 m/s 750 mmHg 92%
    05:00 +2°C° 0 mm 2 m/s 750 mmHg 92%
    06:00 +2°C° 0 mm 2 m/s 751 mmHg 91%
    07:00 +2°C° 0 mm 2 m/s 751 mmHg 91%
    08:00 +2°C° 0 mm 2 m/s 752 mmHg 91%
    09:00 +3°C° 0 mm 1 m/s 752 mmHg 90%
    10:00 +3°C° 0 mm 2 m/s 753 mmHg 87%
    11:00 +4°C° 0 mm 2 m/s 753 mmHg 83%
    12:00 +4°C° 0 mm 3 m/s 753 mmHg 80%
    13:00 +5°C° 0 mm 2 m/s 754 mmHg 82%
    14:00 +5°C° 0 mm 2 m/s 754 mmHg 83%
    15:00 +5°C° 0 mm 2 m/s 755 mmHg 85%
    16:00 +4°C° 0 mm 2 m/s 755 mmHg 86%
    17:00 +3°C° 0 mm 2 m/s 756 mmHg 86%
    18:00 +3°C° 0 mm 2 m/s 756 mmHg 87%
    19:00 +3°C° 0 mm 2 m/s 757 mmHg 86%
    20:00 +2°C° 0 mm 3 m/s 757 mmHg 85%
    21:00 +2°C° 0 mm 3 m/s 758 mmHg 85%
    22:00 +2°C° 0 mm 3 m/s 758 mmHg 85%
    23:00 +2°C° 0 mm 3 m/s 758 mmHg 86%
    Arată mai mult